Tracking 17844 objects as of 28-August-2016
HD Live streaming from Space Station
objects crossing your sky now

SCOUT B-1 R/B

Track SCOUT B-1 R/B now!
10-day predictions


NORAD ID: 5438
Int'l Code: 1971-071B
Perigee: 632.2 km
Apogee: 785.4 km
Inclination: 50.1 °
Period: 98.8 minutes
Semi major axis: 7079 km
RCS: 0.747 m2 (medium)
Launch date: August 16, 1971
Source: United States (US)
Launch site: WALLOPS ISLAND (WLPIS)

Note: This is a ROCKET BODY
Your satellite tracking list
Your tracking list is empty





NASA's NSSDC Master Catalog

Two Line Element Set (TLE):
1 05438U 71071B   16240.18703261 -.00000031  00000-0  35032-4 0  9999
2 05438  50.1474 290.7143 0108242 218.0419 141.2831 14.57373063376848
Source of the keplerian elements: AFSPC

N2YO: 506